| time (UTC) | temp C | wind direction | speed KPH | gust KPH | rain 1hr cm | rain 24hr cm | rain mn cm | humidity % | barometer mb |
| 20260502160716 | 21 | 292 | 6.4 | 8.0 | 0.00 | 0.00 | 0.00 | 39 | 1012.9 |
| 20260502160108 | 21 | 315 | 0.0 | 9.7 | 0.00 | 0.00 | 0.00 | 39 | 1013.1 |
| 20260502152226 | 23 | 315 | 12.9 | 12.9 | 0.00 | 0.00 | 0.00 | 36 | 1013.2 |
| 20260502151821 | 23 | 315 | 4.8 | 8.0 | 0.00 | 0.00 | 0.00 | 36 | 1013.2 |
| 20260502151619 | 23 | 315 | 4.8 | 8.0 | 0.00 | 0.00 | 0.00 | 36 | 1013.2 |
| 20260502151417 | 23 | 315 | 6.4 | 8.0 | 0.00 | 0.00 | 0.00 | 36 | 1013.3 |
| 20260502151214 | 23 | 270 | 6.4 | 9.7 | 0.00 | 0.00 | 0.00 | 36 | 1013.3 |
| 20260502151012 | 23 | 292 | 6.4 | 16.1 | 0.00 | 0.00 | 0.00 | 36 | 1013.3 |
| 20260502150608 | 23 | 292 | 11.3 | 25.7 | 0.00 | 0.00 | 0.00 | 36 | 1013.3 |
| 20260502130544 | 23 | 315 | 6.4 | 11.3 | 0.00 | 0.00 | 0.00 | 35 | 1014.5 |
| 20260502130340 | 23 | 292 | 9.7 | 17.7 | 0.00 | 0.00 | 0.00 | 34 | 1014.6 |
| 20260502130138 | 23 | 292 | 11.3 | 17.7 | 0.00 | 0.00 | 0.00 | 34 | 1014.5 |
| 20260502123703 | 24 | 315 | 9.7 | 17.7 | 0.00 | 0.00 | 0.00 | 34 | 1014.6 |
| 20260502123501 | 25 | 315 | 9.7 | 17.7 | 0.00 | 0.00 | 0.00 | 34 | 1014.6 |
| 20260502123303 | 25 | 315 | 14.5 | 16.1 | 0.00 | 0.00 | 0.00 | 35 | 1014.8 |
| 20260502123057 | 25 | 315 | 14.5 | 16.1 | 0.00 | 0.00 | 0.00 | 35 | 1014.5 |
| 20260502122854 | 25 | 303 | 9.7 | 16.1 | 0.00 | 0.00 | 0.00 | 35 | 1014.8 |
| 20260502122652 | 25 | 315 | 11.3 | 16.1 | 0.00 | 0.00 | 0.00 | 35 | 1014.7 |
| 20260502122450 | 25 | 315 | 8.0 | 16.1 | 0.00 | 0.00 | 0.00 | 35 | 1014.8 |
| 20260502122248 | 25 | 225 | 9.7 | 16.1 | 0.00 | 0.00 | 0.00 | 35 | 1014.8 |
| 20260502121843 | 25 | 258 | 11.3 | 16.1 | 0.00 | 0.00 | 0.00 | 34 | 1014.9 |
| 20260502121641 | 25 | 292 | 9.7 | 16.1 | 0.00 | 0.00 | 0.00 | 35 | 1014.8 |
| 20260502121438 | 25 | 225 | 9.7 | 12.9 | 0.00 | 0.00 | 0.00 | 35 | 1014.8 |
| 20260502121237 | 25 | 303 | 9.7 | 11.3 | 0.00 | 0.00 | 0.00 | 36 | 1014.7 |
| 20260502120838 | 24 | 225 | 11.3 | 14.5 | 0.00 | 0.00 | 0.00 | ||
| 20260502120831 | 24 | 225 | 11.3 | 14.5 | 0.00 | 0.00 | 0.00 | 36 | 1014.8 |
| 20260502120427 | 24 | 292 | 14.5 | 14.5 | 0.00 | 0.00 | 0.00 | 37 | 1014.9 |
| 20260502120225 | 24 | 315 | 11.3 | 16.1 | 0.00 | 0.00 | 0.00 | 37 | 1014.9 |
| 20260502115820 | 24 | 0 | 11.3 | 17.7 | 0.00 | 0.00 | 0.00 | 37 | 1014.9 |
| 20260502115618 | 24 | 315 | 16.1 | 17.7 | 0.00 | 0.00 | 0.00 | 37 | 1014.9 |
| 20260502115416 | 24 | 315 | 14.5 | 19.3 | 0.00 | 0.00 | 0.00 | 37 | 1014.9 |
| 20260502114606 | 23 | 337 | 6.4 | 14.5 | 0.00 | 0.00 | 0.00 | 38 | 1015.2 |
| 20260502114404 | 23 | 292 | 8.0 | 19.3 | 0.00 | 0.00 | 0.00 | 38 | 1015.1 |
| 20260502114202 | 23 | 292 | 16.1 | 19.3 | 0.00 | 0.00 | 0.00 | 38 | 1015.1 |
| 20260502113151 | 23 | 315 | 11.3 | 22.5 | 0.00 | 0.00 | 0.00 | 38 | 1015.0 |
| 20260502112949 | 23 | 292 | 16.1 | 22.5 | 0.00 | 0.00 | 0.00 | 38 | 1015.2 |
| 20260502112746 | 23 | 315 | 20.9 | 22.5 | 0.00 | 0.00 | 0.00 | 39 | 1015.2 |
| 20260502112544 | 23 | 303 | 19.3 | 19.3 | 0.00 | 0.00 | 0.00 | 39 | 1015.3 |
| 20260502112140 | 23 | 326 | 11.3 | 19.3 | 0.00 | 0.00 | 0.00 | 39 | 1015.4 |
| 20260502111937 | 23 | 236 | 11.3 | 19.3 | 0.00 | 0.00 | 0.00 | 38 | 1015.3 |
| 20260502111734 | 23 | 292 | 12.9 | 17.7 | 0.00 | 0.00 | 0.00 | 39 | 1015.3 |
| 20260502111532 | 23 | 292 | 12.9 | 17.7 | 0.00 | 0.00 | 0.00 | 39 | 1015.4 |
| 20260502111331 | 23 | 326 | 9.7 | 19.3 | 0.00 | 0.00 | 0.00 | 39 | 1015.4 |
| 20260502111129 | 23 | 315 | 12.9 | 19.3 | 0.00 | 0.00 | 0.00 | 39 | 1015.4 |
| 20260502110926 | 23 | 315 | 11.3 | 12.9 | 0.00 | 0.00 | 0.00 | 39 | 1015.4 |
| 20260502110723 | 22 | 315 | 12.9 | 17.7 | 0.00 | 0.00 | 0.00 | 38 | 1015.4 |
| 20260502110521 | 22 | 0 | 9.7 | 17.7 | 0.00 | 0.00 | 0.00 | 38 | 1015.3 |
| 20260502110319 | 22 | 348 | 17.7 | 17.7 | 0.00 | 0.00 | 0.00 | 39 | 1015.4 |
| 20260502110117 | 22 | 348 | 9.7 | 17.7 | 0.00 | 0.00 | 0.00 | 39 | 1015.5 |
| 20260502105915 | 22 | 236 | 12.9 | 17.7 | 0.00 | 0.00 | 0.00 | 39 | 1015.5 |
| 20260502105517 | 22 | 315 | 11.3 | 19.3 | 0.00 | 0.00 | 0.00 | 39 | 1015.5 |
| 20260502105309 | 22 | 303 | 12.9 | 19.3 | 0.00 | 0.00 | 0.00 | 39 | 1015.5 |
| 20260502105106 | 22 | 315 | 14.5 | 20.9 | 0.00 | 0.00 | 0.00 | 39 | 1015.6 |
| 20260502104702 | 22 | 315 | 19.3 | 19.3 | 0.00 | 0.00 | 0.00 | 40 | 1015.7 |
| 20260502104518 | 22 | 0 | 4.8 | 16.1 | 0.00 | 0.00 | 0.00 | 40 | 1015.7 |
| 20260502104316 | 22 | 0 | 11.3 | 11.3 | 0.00 | 0.00 | 0.00 | 40 | 1015.8 |
| 20260502104115 | 22 | 0 | 9.7 | 11.3 | 0.00 | 0.00 | 0.00 | 39 | 1015.9 |
| 20260502103912 | 22 | 315 | 11.3 | 16.1 | 0.00 | 0.00 | 0.00 | 40 | 1015.8 |
| 20260502103709 | 22 | 315 | 9.7 | 16.1 | 0.00 | 0.00 | 0.00 | 39 | 1015.9 |
| 20260502103507 | 22 | 315 | 14.5 | 14.5 | 0.00 | 0.00 | 0.00 | 38 | 1015.8 |
| 20260502103305 | 22 | 0 | 9.7 | 14.5 | 0.00 | 0.00 | 0.00 | 38 | 1015.8 |
| 20260502102901 | 22 | 0 | 3.2 | 14.5 | 0.00 | 0.00 | 0.00 | 39 | 1015.9 |
| 20260502102658 | 22 | 315 | 11.3 | 14.5 | 0.00 | 0.00 | 0.00 | 38 | 1015.8 |
| 20260502102254 | 22 | 315 | 11.3 | 12.9 | 0.00 | 0.00 | 0.00 | 38 | 1015.9 |
| 20260502102052 | 22 | 0 | 12.9 | 12.9 | 0.00 | 0.00 | 0.00 | 37 | 1015.9 |
| 20260502101849 | 22 | 0 | 6.4 | 16.1 | 0.00 | 0.00 | 0.00 | 37 | 1015.9 |
| 20260502101646 | 22 | 0 | 6.4 | 16.1 | 0.00 | 0.00 | 0.00 | 37 | 1015.9 |
| 20260502101444 | 22 | 0 | 14.5 | 16.1 | 0.00 | 0.00 | 0.00 | 37 | 1015.9 |
| 20260502101242 | 22 | 315 | 6.4 | 16.1 | 0.00 | 0.00 | 0.00 | 37 | 1015.9 |
| 20260502100231 | 22 | 315 | 9.7 | 11.3 | 0.00 | 0.00 | 0.00 | 37 | 1015.8 |
| 20260502091337 | 23 | 315 | 8.0 | 11.3 | 0.00 | 0.00 | 0.00 | 34 | 1015.9 |
| 20260502090932 | 23 | 315 | 8.0 | 8.0 | 0.00 | 0.00 | 0.00 | 35 | 1016.0 |
| 20260502090730 | 23 | 315 | 6.4 | 12.9 | 0.00 | 0.00 | 0.00 | 35 | 1016.0 |
| 20260502090527 | 22 | 315 | 8.0 | 12.9 | 0.00 | 0.00 | 0.00 | 35 | 1016.0 |
| 20260502090325 | 22 | 326 | 12.9 | 12.9 | 0.00 | 0.00 | 0.00 | 35 | 1015.9 |
| 20260502090123 | 22 | 0 | 9.7 | 11.3 | 0.00 | 0.00 | 0.00 | 35 | 1016.0 |
| 20260502071525 | 22 | 292 | 6.4 | 6.4 | 0.00 | 0.00 | 0.00 | 40 | 1015.7 |
| 20260502071322 | 22 | 315 | 4.8 | 6.4 | 0.00 | 0.00 | 0.00 | 41 | 1015.5 |
| 20260502071120 | 22 | 236 | 1.6 | 4.8 | 0.00 | 0.00 | 0.00 | 41 | 1015.8 |
| 20260502070918 | 21 | 315 | 3.2 | 204.4 | 0.00 | 0.00 | 0.00 | 40 | 1015.7 |
| 20260502070716 | 21 | 337 | 4.8 | 204.4 | 0.00 | 0.00 | 0.00 | 41 | 1015.8 |
| 20260502070614 | 21 | 292 | 204.4 | 204.4 | 0.00 | 0.00 | 0.00 | 41 | 1015.7 |
| 20260502070208 | 21 | 315 | 3.2 | 202.8 | 0.00 | 0.00 | 0.00 | 43 | 1015.7 |
| 20260502070006 | 20 | 270 | 1.6 | 202.8 | 0.00 | 0.00 | 0.00 | 44 | 1015.6 |
| 20260502065903 | 20 | 303 | 202.8 | 202.8 | 0.00 | 0.00 | 0.00 | 45 | 1015.6 |
| 20260502065136 | 19 | 292 | 202.8 | 202.8 | 0.00 | 0.00 | 0.00 | 46 | 1015.6 |
| 20260502065020 | 19 | 303 | 1.6 | 4.8 | 0.00 | 0.00 | 0.00 | 45 | 1015.6 |
| 20260502064818 | 18 | 315 | 3.2 | 201.2 | 0.00 | 0.00 | 0.00 | 45 | 1015.5 |
| 20260502064449 | 18 | 303 | 1.6 | 4.8 | 0.00 | 0.00 | 0.00 | 45 | 1015.6 |
| 20260502064247 | 18 | 236 | 3.2 | 4.8 | 0.00 | 0.00 | 0.00 | 45 | 1015.7 |
| 20260502064045 | 17 | 292 | 3.2 | 201.2 | 0.00 | 0.00 | 0.00 | 46 | 1015.6 |
| 20260502063741 | 17 | 225 | 201.2 | 201.2 | 0.00 | 0.00 | 0.00 | 51 | 1015.6 |
| 20260502063542 | 17 | 315 | 0.0 | 4.8 | 0.00 | 0.00 | 0.00 | 45 | 1015.6 |
| 20260502062339 | 16 | 247 | 3.2 | 6.4 | 0.00 | 0.00 | 0.00 | 46 | 1015.8 |
| 20260502062137 | 15 | 315 | 3.2 | 6.4 | 0.00 | 0.00 | 0.00 | 46 | 1015.6 |
| 20260502061935 | 15 | 45 | 4.8 | 4.8 | 0.00 | 0.00 | 0.00 | 46 | 1015.7 |
| 20260502061732 | 15 | 225 | 1.6 | 9.7 | 0.00 | 0.00 | 0.00 | 46 | 1015.7 |
| 20260502061530 | 15 | 247 | 4.8 | 9.7 | 0.00 | 0.00 | 0.00 | 46 | 1015.7 |
| 20260502061024 | 15 | 292 | 207.6 | 207.6 | 0.00 | 0.00 | 0.00 | 46 | 1015.8 |
| 20260502060937 | 15 | 292 | 3.2 | 4.8 | 0.00 | 0.00 | 0.00 | 46 | 1015.6 |
| 20260502060734 | 15 | 247 | 4.8 | 4.8 | 0.00 | 0.00 | 0.00 | 46 | 1015.7 |
| 20260502060532 | 15 | 247 | 3.2 | 8.0 | 0.00 | 0.00 | 0.00 | 46 | 1015.6 |
| 20260502060128 | 15 | 45 | 4.8 | 202.8 | 0.00 | 0.00 | 0.00 | 47 | 1015.7 |
| 20260502060025 | 15 | 236 | 202.8 | 202.8 | 0.00 | 0.00 | 0.00 | 47 | 1015.7 |
| 20260502055923 | 15 | 225 | 1.6 | 6.4 | 0.00 | 0.00 | 0.00 | 47 | 1015.7 |
| 20260502055721 | 15 | 292 | 1.6 | 6.4 | 0.00 | 0.00 | 0.00 | 47 | 1015.7 |
| 20260502055519 | 15 | 337 | 4.8 | 6.4 | 0.00 | 0.00 | 0.00 | 47 | 1015.8 |
| 20260502055317 | 15 | 315 | 6.4 | 6.4 | 0.00 | 0.00 | 0.00 | 46 | 1015.6 |
| 20260502055114 | 14 | 292 | 4.8 | 4.8 | 0.00 | 0.00 | 0.00 | 47 | 1015.6 |
| 20260502054917 | 14 | 247 | 3.2 | 4.8 | 0.00 | 0.00 | 0.00 | 48 | 1015.7 |
| 20260502054710 | 14 | 247 | 1.6 | 202.8 | 0.00 | 0.00 | 0.00 | 48 | 1015.6 |
| 20260502054550 | 14 | 247 | 4.8 | 202.8 | 0.00 | 0.00 | 0.00 | 50 | 1015.6 |
| 20260502054516 | 14 | 247 | 4.8 | 202.8 | 0.00 | 0.00 | 0.00 | 50 | 1015.6 |
| 20260502054406 | 14 | 247 | 202.8 | 202.8 | 0.00 | 0.00 | 0.00 | 49 | 1015.6 |
| 20260502054348 | 14 | 247 | 4.8 | 8.0 | 0.00 | 0.00 | 0.00 | 48 | 1015.4 |
| 20260502054145 | 14 | 281 | 1.6 | 9.7 | 0.00 | 0.00 | 0.00 | 49 | 1015.5 |
| 20260502053539 | 14 | 247 | 1.6 | 11.3 | 0.00 | 0.00 | 0.00 | 48 | 1015.6 |
| 20260502053341 | 14 | 337 | 3.2 | 11.3 | 0.00 | 0.00 | 0.00 | 48 | 1015.6 |
| 20260502053133 | 14 | 236 | 6.4 | 11.3 | 0.00 | 0.00 | 0.00 | 49 | 1015.7 |
| 20260502052931 | 14 | 236 | 8.0 | 8.0 | 0.00 | 0.00 | 0.00 | 48 | 1015.3 |
| 20260502052729 | 14 | 315 | 4.8 | 4.8 | 0.00 | 0.00 | 0.00 | 48 | 1015.6 |
| 20260502052527 | 14 | 348 | 3.2 | 4.8 | 0.00 | 0.00 | 0.00 | 50 | 1015.6 |
| 20260502051920 | 13 | 45 | 1.6 | 6.4 | 0.00 | 0.00 | 0.00 | 50 | 1015.6 |
| 20260502051718 | 13 | 45 | 3.2 | 201.2 | 0.00 | 0.00 | 0.00 | 50 | 1015.7 |
| 20260502051414 | 13 | 292 | 201.2 | 201.2 | 0.00 | 0.00 | 0.00 | 49 | 1015.6 |
| 20260502051202 | 13 | 45 | 6.4 | 11.3 | 0.00 | 0.00 | 0.00 | 49 | 1015.5 |
| 20260502050959 | 13 | 236 | 8.0 | 11.3 | 0.00 | 0.00 | 0.00 | 50 | 1015.6 |
| 20260502050801 | 13 | 247 | 11.3 | 11.3 | 0.00 | 0.00 | 0.00 | 50 | 1015.7 |
| 20260502050555 | 13 | 45 | 8.0 | 8.0 | 0.00 | 0.00 | 0.00 | 51 | 1015.6 |
| 20260502050353 | 13 | 45 | 4.8 | 4.8 | 0.00 | 0.00 | 0.00 | 51 | 1015.6 |
| 20260502050150 | 13 | 247 | 4.8 | 4.8 | 0.00 | 0.00 | 0.00 | 51 | 1015.5 |
| 20260502045948 | 13 | 11 | 1.6 | 8.0 | 0.00 | 0.00 | 0.00 | 51 | 1015.5 |
| 20260502045746 | 13 | 45 | 4.8 | 8.0 | 0.00 | 0.00 | 0.00 | 51 | 1015.6 |
| 20260502045543 | 13 | 45 | 8.0 | 11.3 | 0.00 | 0.00 | 0.00 | 50 | 1015.4 |
| 20260502045510 | 13 | 45 | 6.4 | 202.8 | 0.00 | 0.00 | 0.00 | 51 | 1015.6 |
| 20260502045342 | 13 | 45 | 6.4 | 202.8 | 0.00 | 0.00 | 0.00 | 51 | 1015.6 |
| 20260502045110 | 13 | 225 | 202.8 | 202.8 | 0.00 | 0.00 | 0.00 | 52 | 1015.3 |
| 20260502045037 | 13 | 225 | 202.8 | 202.8 | 0.00 | 0.00 | 0.00 | 52 | 1015.3 |
| 20260502044843 | 13 | 45 | 6.4 | 8.0 | 0.00 | 0.00 | 0.00 | 52 | 1015.6 |
| 20260502044713 | 13 | 45 | 3.2 | 4.8 | 0.00 | 0.00 | 0.00 | 52 | 1015.4 |
| 20260502044637 | 13 | 45 | 3.2 | 4.8 | 0.00 | 0.00 | 0.00 | 52 | 1015.4 |
| 20260502044435 | 13 | 270 | 1.6 | 3.2 | 0.00 | 0.00 | 0.00 | 52 | 1015.6 |
| 20260502044030 | 13 | 337 | 1.6 | 1.6 | 0.00 | 0.00 | 0.00 | 53 | 1015.3 |
| 20260502043626 | 13 | 292 | 0.0 | 4.8 | 0.00 | 0.00 | 0.00 | 52 | 1015.5 |
| 20260502043220 | 13 | 281 | 4.8 | 4.8 | 0.00 | 0.00 | 0.00 | 52 | 1015.4 |
| 20260502043018 | 13 | 292 | 3.2 | 4.8 | 0.00 | 0.00 | 0.00 | 53 | 1015.4 |
| 20260502042615 | 13 | 292 | 4.8 | 4.8 | 0.00 | 0.00 | 0.00 | 52 | 1015.2 |
| 20260502042320 | 13 | 292 | 1.6 | 3.2 | 0.00 | 0.00 | 0.00 | 53 | 1015.3 |
| 20260502042117 | 13 | 315 | 1.6 | 3.2 | 0.00 | 0.00 | 0.00 | 53 | 1015.2 |
| 20260502041915 | 13 | 315 | 3.2 | 4.8 | 0.00 | 0.00 | 0.00 | 53 | 1015.3 |
| 20260502041308 | 13 | 292 | 4.8 | 4.8 | 0.00 | 0.00 | 0.00 | 54 | 1015.2 |
| 20260502040940 | 13 | 315 | 3.2 | 3.2 | 0.00 | 0.00 | 0.00 | 54 | 1015.5 |
| 20260502040904 | 13 | 315 | 3.2 | 3.2 | 0.00 | 0.00 | 0.00 | 54 | 1015.5 |
| 20260502040703 | 13 | 270 | 3.2 | 201.2 | 0.00 | 0.00 | 0.00 | 54 | 1015.3 |
| 20260502040501 | 13 | 326 | 0.0 | 201.2 | 0.00 | 0.00 | 0.00 | 54 | 1014.9 |
| 20260502040357 | 13 | 45 | 201.2 | 201.2 | 0.00 | 0.00 | 0.00 | 54 | 1015.2 |
| 20260502040314 | 13 | 45 | 4.8 | 6.4 | 0.00 | 0.00 | 0.00 | 54 | 1015.4 |
| 20260502040111 | 13 | 45 | 6.4 | 6.4 | 0.00 | 0.00 | 0.00 | 55 | 1015.4 |
| 20260502035707 | 13 | 45 | 4.8 | 8.0 | 0.00 | 0.00 | 0.00 | 56 | 1015.5 |
| 20260502035505 | 13 | 45 | 6.4 | 8.0 | 0.00 | 0.00 | 0.00 | 56 | 1015.3 |
| 20260502035306 | 13 | 45 | 4.8 | 6.4 | 0.00 | 0.00 | 0.00 | 56 | 1015.0 |
| 20260502035100 | 13 | 45 | 6.4 | 6.4 | 0.00 | 0.00 | 0.00 | 55 | 1015.3 |
| 20260502034858 | 13 | 45 | 6.4 | 8.0 | 0.00 | 0.00 | 0.00 | 55 | 1015.1 |
| 20260502034454 | 13 | 45 | 4.8 | 6.4 | 0.00 | 0.00 | 0.00 | 55 | 1015.5 |
| 20260502034049 | 13 | 45 | 6.4 | 8.0 | 0.00 | 0.00 | 0.00 | 55 | 1015.3 |
| 20260502033645 | 13 | 45 | 1.6 | 6.4 | 0.00 | 0.00 | 0.00 | 55 | 1015.7 |
| 20260502033447 | 13 | 45 | 4.8 | 6.4 | 0.00 | 0.00 | 0.00 | 55 | 1015.7 |
| 20260502033038 | 13 | 315 | 3.2 | 4.8 | 0.00 | 0.00 | 0.00 | 55 | 1015.6 |
| 20260502032835 | 13 | 225 | 4.8 | 4.8 | 0.00 | 0.00 | 0.00 | 55 | 1015.4 |
| 20260502032049 | 13 | 0 | 3.2 | 4.8 | 0.00 | 0.00 | 0.00 | 55 | 1015.7 |
| 20260502031847 | 13 | 292 | 4.8 | 6.4 | 0.00 | 0.00 | 0.00 | 56 | 1015.5 |
| 20260502031442 | 13 | 292 | 4.8 | 4.8 | 0.00 | 0.00 | 0.00 | 56 | 1015.6 |
| 20260502031241 | 13 | 315 | 3.2 | 4.8 | 0.00 | 0.00 | 0.00 | 55 | 1015.7 |
| 20260502031038 | 13 | 292 | 1.6 | 4.8 | 0.00 | 0.00 | 0.00 | 55 | 1015.7 |
| 20260502030836 | 13 | 348 | 3.2 | 201.2 | 0.00 | 0.00 | 0.00 | 55 | 1015.4 |
| 20260502030713 | 13 | 292 | 3.2 | 201.2 | 0.00 | 0.00 | 0.00 | 55 | 1015.5 |
| 20260502030633 | 13 | 292 | 3.2 | 201.2 | 0.00 | 0.00 | 0.00 | 55 | 1015.5 |
| 20260502030531 | 13 | 292 | 201.2 | 201.2 | 0.00 | 0.00 | 0.00 | 55 | 1015.7 |
| 20260502030502 | 13 | 303 | 3.2 | 3.2 | 0.00 | 0.00 | 0.00 | 55 | 1015.9 |
| 20260502030307 | 13 | 281 | 3.2 | 4.8 | 0.00 | 0.00 | 0.00 | 55 | 1015.6 |
| 20260502030058 | 13 | 337 | 1.6 | 4.8 | 0.00 | 0.00 | 0.00 | 55 | 1015.8 |
| 20260502025857 | 13 | 281 | 3.2 | 4.8 | 0.00 | 0.00 | 0.00 | 54 | 1015.8 |
| 20260502025736 | 13 | 326 | 1.6 | 4.8 | 0.00 | 0.00 | 0.00 | 55 | 1015.8 |
| 20260502025653 | 13 | 326 | 1.6 | 4.8 | 0.00 | 0.00 | 0.00 | 55 | 1015.8 |
| 20260502025451 | 13 | 292 | 3.2 | 3.2 | 0.00 | 0.00 | 0.00 | 54 | 1015.7 |
| 20260502025249 | 13 | 292 | 1.6 | 3.2 | 0.00 | 0.00 | 0.00 | 56 | 1015.8 |
| 20260502025047 | 13 | 292 | 1.6 | 3.2 | 0.00 | 0.00 | 0.00 | 55 | 1015.8 |
| 20260502024845 | 13 | 315 | 1.6 | 1.6 | 0.00 | 0.00 | 0.00 | 54 | 1015.9 |
| 20260502024702 | 13 | 33 | 3.2 | 4.8 | 0.00 | 0.00 | 0.00 | 54 | 1015.6 |
| 20260502024500 | 13 | 45 | 4.8 | 4.8 | 0.00 | 0.00 | 0.00 | 55 | 1015.7 |
| 20260502024304 | 13 | 45 | 4.8 | 4.8 | 0.00 | 0.00 | 0.00 | 55 | 1015.6 |
| 20260502024056 | 13 | 45 | 3.2 | 4.8 | 0.00 | 0.00 | 0.00 | 54 | 1015.6 |
| 20260502023853 | 13 | 45 | 3.2 | 4.8 | 0.00 | 0.00 | 0.00 | 55 | 1015.8 |
| 20260502023650 | 13 | 292 | 3.2 | 4.8 | 0.00 | 0.00 | 0.00 | 55 | 1015.8 |
| 20260502023448 | 13 | 0 | 4.8 | 4.8 | 0.00 | 0.00 | 0.00 | 56 | 1015.6 |
| 20260502023044 | 13 | 45 | 0.0 | 4.8 | 0.00 | 0.00 | 0.00 | 56 | 1015.7 |
| 20260502022437 | 13 | 45 | 3.2 | 4.8 | 0.00 | 0.00 | 0.00 | 55 | 1016.0 |
| 20260502022235 | 13 | 292 | 1.6 | 4.8 | 0.00 | 0.00 | 0.00 | 56 | 1015.6 |
| 20260502022109 | 13 | 225 | 3.2 | 6.4 | 0.00 | 0.00 | 0.00 | 56 | 1015.8 |
| 20260502022034 | 13 | 225 | 3.2 | 6.4 | 0.00 | 0.00 | 0.00 | 56 | 1015.8 |
| 20260502021831 | 13 | 45 | 4.8 | 6.4 | 0.00 | 0.00 | 0.00 | 54 | 1015.8 |
| 20260502021628 | 13 | 45 | 6.4 | 6.4 | 0.00 | 0.00 | 0.00 | 55 | 1015.8 |
| 20260502021102 | 13 | 348 | 1.6 | 202.8 | 0.00 | 0.00 | 0.00 | 55 | 1016.1 |
| 20260502021022 | 13 | 348 | 1.6 | 202.8 | 0.00 | 0.00 | 0.00 | 55 | 1016.1 |
| 20260502020919 | 13 | 292 | 202.8 | 202.8 | 0.00 | 0.00 | 0.00 | 55 | 1015.7 |
| 20260502020804 | 13 | 292 | 1.6 | 3.2 | 0.00 | 0.00 | 0.00 | 54 | 1016.1 |
| 20260502020634 | 13 | 348 | 3.2 | 3.2 | 0.00 | 0.00 | 0.00 | 55 | 1016.0 |
| 20260502020602 | 13 | 348 | 3.2 | 3.2 | 0.00 | 0.00 | 0.00 | 55 | 1016.0 |
| 20260502020400 | 13 | 337 | 1.6 | 8.0 | 0.00 | 0.00 | 0.00 | 55 | 1015.9 |
| 20260502020157 | 13 | 292 | 4.8 | 8.0 | 0.00 | 0.00 | 0.00 | 56 | 1016.2 |
| 20260502015753 | 13 | 303 | 1.6 | 3.2 | 0.00 | 0.00 | 0.00 | 55 | 1015.6 |
| 20260502015551 | 13 | 348 | 3.2 | 3.2 | 0.00 | 0.00 | 0.00 | 52 | 1016.3 |
| 20260502015349 | 13 | 0 | 3.2 | 3.2 | 0.00 | 0.00 | 0.00 | 54 | 1015.8 |
| 20260502015149 | 13 | 326 | 3.2 | 4.8 | 0.00 | 0.00 | 0.00 | 54 | 1015.9 |
| 20260502014542 | 13 | 326 | 3.2 | 4.8 | 0.00 | 0.00 | 0.00 | 54 | 1016.1 |
| 20260502014344 | 13 | 0 | 1.6 | 4.8 | 0.00 | 0.00 | 0.00 | 54 | 1016.1 |
| 20260502014141 | 13 | 0 | 4.8 | 4.8 | 0.00 | 0.00 | 0.00 | 54 | 1016.1 |
| 20260502013934 | 13 | 45 | 4.8 | 4.8 | 0.00 | 0.00 | 0.00 | 54 | 1016.0 |
| 20260502013530 | 13 | 45 | 1.6 | 201.2 | 0.00 | 0.00 | 0.00 | 54 | 1015.9 |
| 20260502013328 | 13 | 348 | 0.0 | 201.2 | 0.00 | 0.00 | 0.00 | 55 | 1016.2 |
| 20260502013226 | 13 | 22 | 201.2 | 201.2 | 0.00 | 0.00 | 0.00 | 55 | 1016.0 |
| 20260502012913 | 13 | 292 | 3.2 | 3.2 | 0.00 | 0.00 | 0.00 | 54 | 1015.7 |
| 20260502012706 | 13 | 0 | 3.2 | 3.2 | 0.00 | 0.00 | 0.00 | 54 | 1016.0 |
| 20260502012505 | 13 | 348 | 1.6 | 1.6 | 0.00 | 0.00 | 0.00 | 55 | 1016.0 |
| 20260502012302 | 13 | 45 | 1.6 | 3.2 | 0.00 | 0.00 | 0.00 | 54 | 1016.3 |
| 20260502012059 | 14 | 0 | 1.6 | 4.8 | 0.00 | 0.00 | 0.00 | 55 | 1016.4 |
| 20260502011857 | 14 | 22 | 4.8 | 4.8 | 0.00 | 0.00 | 0.00 | 54 | 1015.9 |
| 20260502011453 | 14 | 326 | 3.2 | 202.8 | 0.00 | 0.00 | 0.00 | 54 | 1016.3 |
| 20260502011351 | 14 | 0 | 202.8 | 202.8 | 0.00 | 0.00 | 0.00 | 54 | 1016.2 |
| 20260502010932 | 14 | 33 | 1.6 | 3.2 | 0.00 | 0.00 | 0.00 | 54 | 1016.5 |
| 20260502010527 | 14 | 292 | 1.6 | 4.8 | 0.00 | 0.00 | 0.00 | 54 | 1016.5 |
| 20260502010325 | 14 | 326 | 3.2 | 4.8 | 0.00 | 0.00 | 0.00 | 55 | 1016.4 |
| 20260502005921 | 14 | 0 | 1.6 | 4.8 | 0.00 | 0.00 | 0.00 | 54 | 1016.4 |
| 20260502005718 | 14 | 0 | 3.2 | 3.2 | 0.00 | 0.00 | 0.00 | 54 | 1016.5 |
| 20260502005520 | 14 | 0 | 1.6 | 3.2 | 0.00 | 0.00 | 0.00 | 54 | 1016.2 |
| 20260502005314 | 14 | 0 | 1.6 | 4.8 | 0.00 | 0.00 | 0.00 | 54 | 1016.7 |
| 20260502004909 | 14 | 22 | 4.8 | 4.8 | 0.00 | 0.00 | 0.00 | 54 | 1016.7 |
| 20260502004850 | 14 | 0 | 4.8 | 4.8 | 0.00 | 0.00 | 0.00 | 54 | 1016.3 |
| 20260502004446 | 14 | 292 | 3.2 | 4.8 | 0.00 | 0.00 | 0.00 | 54 | 1016.8 |
| 20260502004040 | 14 | 0 | 4.8 | 6.4 | 0.00 | 0.00 | 0.00 | 54 | 1016.6 |
| 20260502003838 | 14 | 45 | 3.2 | 6.4 | 0.00 | 0.00 | 0.00 | 55 | 1016.9 |
| 20260502003441 | 14 | 45 | 4.8 | 204.4 | 0.00 | 0.00 | 0.00 | 55 | 1016.9 |
| 20260502003434 | 14 | 45 | 4.8 | 204.4 | 0.00 | 0.00 | 0.00 | 55 | 1016.9 |
| 20260502003405 | 14 | 45 | 204.4 | 204.4 | 0.00 | 0.00 | 0.00 | 54 | 1016.6 |
| 20260502003332 | 14 | 45 | 204.4 | 204.4 | 0.00 | 0.00 | 0.00 | 54 | 1016.6 |
| 20260502003053 | 14 | 0 | 1.6 | 6.4 | 0.00 | 0.00 | 0.00 | 55 | 1016.8 |
| 20260502002851 | 14 | 45 | 6.4 | 6.4 | 0.00 | 0.00 | 0.00 | 54 | 1017.0 |
| 20260502002737 | 14 | 0 | 1.6 | 6.4 | 0.00 | 0.00 | 0.00 | 54 | 1016.8 |
| 20260502002649 | 14 | 0 | 1.6 | 6.4 | 0.00 | 0.00 | 0.00 | 54 | 1016.8 |
| 20260502002244 | 14 | 326 | 3.2 | 3.2 | 0.00 | 0.00 | 0.00 | 54 | 1016.6 |
| 20260502002042 | 14 | 292 | 1.6 | 3.2 | 0.00 | 0.00 | 0.00 | 54 | 1016.7 |
| 20260502001840 | 14 | 292 | 3.2 | 3.2 | 0.00 | 0.00 | 0.00 | 55 | 1016.8 |
| 20260502001436 | 14 | 326 | 1.6 | 201.2 | 0.00 | 0.00 | 0.00 | 54 | 1016.8 |
| 20260502001333 | 14 | 45 | 201.2 | 201.2 | 0.00 | 0.00 | 0.00 | 58 | 1016.9 |
| 20260502001215 | 14 | 45 | 1.6 | 3.2 | 0.00 | 0.00 | 0.00 | 53 | 1017.1 |
| 20260502001126 | 14 | 45 | 1.6 | 3.2 | 0.00 | 0.00 | 0.00 | 53 | 1017.1 |
| 20260502000924 | 14 | 315 | 0.0 | 1.6 | 0.00 | 0.00 | 0.00 | 54 | 1017.0 |
| 20260502000519 | 14 | 315 | 1.6 | 3.2 | 0.00 | 0.00 | 0.00 | 55 | 1016.8 |
| 20260502000317 | 14 | 0 | 1.6 | 3.2 | 0.00 | 0.00 | 0.00 | 56 | 1017.1 |
| 20260501235829 | 14 | 292 | 4.8 | 6.4 | 0.00 | 0.00 | 0.00 | 54 | 1017.0 |
| 20260501235714 | 14 | 292 | 4.8 | 4.8 | 0.00 | 0.00 | 0.00 | 54 | 1016.7 |
| 20260501235627 | 14 | 292 | 4.8 | 4.8 | 0.00 | 0.00 | 0.00 | 54 | 1016.7 |
| 20260501235235 | 15 | 303 | 6.4 | 8.0 | 0.00 | 0.00 | 0.00 | 55 | 1017.1 |
| 20260501235222 | 15 | 303 | 6.4 | 8.0 | 0.00 | 0.00 | 0.00 | 55 | 1017.1 |
| 20260501234616 | 15 | 326 | 3.2 | 4.8 | 0.00 | 0.00 | 0.00 | 54 | 1016.9 |
| 20260501234459 | 15 | 292 | 4.8 | 4.8 | 0.00 | 0.00 | 0.00 | 55 | 1017.0 |
| 20260501234414 | 15 | 292 | 4.8 | 4.8 | 0.00 | 0.00 | 0.00 | 55 | 1017.0 |
| 20260501234211 | 15 | 326 | 3.2 | 3.2 | 0.00 | 0.00 | 0.00 | 55 | 1016.9 |
| 20260501233100 | 15 | 45 | 0.0 | 4.8 | 0.00 | 0.00 | 0.00 | 55 | 1017.1 |
| 20260501232858 | 15 | 303 | 0.0 | 4.8 | 0.00 | 0.00 | 0.00 | 54 | 1017.5 |
| 20260501232655 | 15 | 292 | 4.8 | 4.8 | 0.00 | 0.00 | 0.00 | 55 | 1017.3 |
| 20260501232453 | 15 | 303 | 0.0 | 6.4 | 0.00 | 0.00 | 0.00 | 55 | 1017.3 |
| 20260501232323 | 15 | 337 | 1.6 | 6.4 | 0.00 | 0.00 | 0.00 | 54 | 1017.4 |
| 20260501232251 | 15 | 337 | 1.6 | 6.4 | 0.00 | 0.00 | 0.00 | 54 | 1017.4 |
| 20260501232049 | 15 | 45 | 6.4 | 6.4 | 0.00 | 0.00 | 0.00 | 55 | 1017.3 |
| 20260501231857 | 15 | 45 | 3.2 | 3.2 | 0.00 | 0.00 | 0.00 | 55 | 1017.2 |
| 20260501231713 | 15 | 45 | 6.4 | 8.0 | 0.00 | 0.00 | 0.00 | 53 | 1017.2 |
| 20260501231510 | 15 | 45 | 6.4 | 8.0 | 0.00 | 0.00 | 0.00 | 53 | 1017.4 |
| 20260501230701 | 15 | 45 | 3.2 | 8.0 | 0.00 | 0.00 | 0.00 | 54 | 1017.4 |
| 20260501230546 | 15 | 45 | 1.6 | 3.2 | 0.00 | 0.00 | 0.00 | 55 | 1017.3 |
| 20260501230459 | 15 | 45 | 1.6 | 3.2 | 0.00 | 0.00 | 0.00 | 55 | 1017.3 |
| 20260501230054 | 15 | 225 | 0.0 | 1.6 | 0.00 | 0.00 | 0.00 | 54 | 1017.5 |
| 20260501225852 | 15 | 45 | 0.0 | 3.2 | 0.00 | 0.00 | 0.00 | 55 | 1017.2 |
| 20260501225650 | 15 | 45 | 0.0 | 202.8 | 0.00 | 0.00 | 0.00 | 55 | 1017.4 |
| 20260501225448 | 15 | 45 | 3.2 | 202.8 | 0.00 | 0.00 | 0.00 | 54 | 1017.2 |
| 20260501225345 | 15 | 225 | 202.8 | 202.8 | 0.00 | 0.00 | 0.00 | 56 | 1017.1 |
| 20260501225251 | 15 | 225 | 4.8 | 4.8 | 0.00 | 0.00 | 0.00 | 54 | 1017.5 |
| 20260501225049 | 15 | 225 | 3.2 | 6.4 | 0.00 | 0.00 | 0.00 | 54 | 1017.5 |
| 20260501224847 | 15 | 225 | 4.8 | 6.4 | 0.00 | 0.00 | 0.00 | 53 | 1017.2 |
| 20260501224652 | 15 | 45 | 3.2 | 199.6 | 0.00 | 0.00 | 0.00 | 54 | 1017.5 |
| 20260501224340 | 15 | 45 | 199.6 | 199.6 | 0.00 | 0.00 | 0.00 | 54 | 1017.4 |
| 20260501224134 | 15 | 45 | 4.8 | 6.4 | 0.00 | 0.00 | 0.00 | 54 | 1017.3 |
| 20260501223527 | 15 | 45 | 4.8 | 6.4 | 0.00 | 0.00 | 0.00 | 54 | 1017.4 |
| 20260501223325 | 15 | 45 | 6.4 | 6.4 | 0.00 | 0.00 | 0.00 | 55 | 1017.5 |
| 20260501223128 | 15 | 45 | 4.8 | 6.4 | 0.00 | 0.00 | 0.00 | 54 | 1017.5 |
| 20260501222920 | 15 | 45 | 4.8 | 6.4 | 0.00 | 0.00 | 0.00 | 54 | 1017.5 |
| 20260501222718 | 16 | 45 | 1.6 | 4.8 | 0.00 | 0.00 | 0.00 | 56 | 1017.5 |
| 20260501222318 | 16 | 45 | 4.8 | 4.8 | 0.00 | 0.00 | 0.00 | 53 | 1017.4 |
| 20260501221913 | 16 | 45 | 1.6 | 4.8 | 0.00 | 0.00 | 0.00 | 52 | 1017.6 |
| 20260501221706 | 16 | 292 | 1.6 | 4.8 | 0.00 | 0.00 | 0.00 | 53 | 1017.4 |
| 20260501221504 | 16 | 45 | 3.2 | 202.8 | 0.00 | 0.00 | 0.00 | 52 | 1017.6 |
| 20260501221302 | 16 | 45 | 1.6 | 202.8 | 0.00 | 0.00 | 0.00 | 53 | 1017.6 |
| 20260501221200 | 16 | 45 | 202.8 | 202.8 | 0.00 | 0.00 | 0.00 | 53 | 1017.6 |
| 20260501220957 | 16 | 45 | 1.6 | 6.4 | 0.00 | 0.00 | 0.00 | 52 | 1017.7 |
| 20260501220552 | 16 | 292 | 0.0 | 1.6 | 0.00 | 0.00 | 0.00 | 52 | 1017.8 |
| 20260501220431 | 16 | 45 | 0.0 | 1.6 | 0.00 | 0.00 | 0.00 | 53 | 1017.3 |
| 20260501220350 | 16 | 45 | 0.0 | 1.6 | 0.00 | 0.00 | 0.00 | 53 | 1017.3 |
| 20260501215704 | 16 | 337 | 0.0 | 3.2 | 0.00 | 0.00 | 0.00 | 53 | 1017.4 |
| 20260501215057 | 16 | 45 | 1.6 | 4.8 | 0.00 | 0.00 | 0.00 | 51 | 1017.7 |
| 20260501214854 | 16 | 0 | 3.2 | 4.8 | 0.00 | 0.00 | 0.00 | 52 | 1017.5 |
| 20260501214652 | 16 | 292 | 0.0 | 201.2 | 0.00 | 0.00 | 0.00 | 52 | 1017.4 |
| 20260501214450 | 16 | 303 | 3.2 | 201.2 | 0.00 | 0.00 | 0.00 | 52 | 1017.6 |
| 20260501214348 | 16 | 292 | 201.2 | 201.2 | 0.00 | 0.00 | 0.00 | 52 | 1017.7 |
| 20260501214326 | 16 | 315 | 3.2 | 4.8 | 0.00 | 0.00 | 0.00 | 53 | 1017.6 |
| 20260501214125 | 16 | 315 | 4.8 | 4.8 | 0.00 | 0.00 | 0.00 | 53 | 1017.7 |
| 20260501213922 | 16 | 292 | 1.6 | 1.6 | 0.00 | 0.00 | 0.00 | 52 | 1017.7 |
| 20260501213517 | 16 | 292 | 3.2 | 6.4 | 0.00 | 0.00 | 0.00 | 52 | 1017.7 |
| 20260501213423 | 16 | 326 | 6.4 | 6.4 | 0.00 | 0.00 | 0.00 | 51 | 1017.5 |
| 20260501213315 | 16 | 326 | 6.4 | 6.4 | 0.00 | 0.00 | 0.00 | 51 | 1017.5 |
| 20260501213114 | 16 | 303 | 4.8 | 4.8 | 0.00 | 0.00 | 0.00 | 52 | 1017.6 |
| 20260501212838 | 16 | 292 | 1.6 | 6.4 | 0.00 | 0.00 | 0.00 | 52 | 1017.7 |
| 20260501212629 | 16 | 45 | 4.8 | 6.4 | 0.00 | 0.00 | 0.00 | 52 | 1017.7 |
| 20260501212426 | 16 | 45 | 6.4 | 6.4 | 0.00 | 0.00 | 0.00 | 52 | 1017.7 |
| 20260501212224 | 16 | 337 | 1.6 | 9.7 | 0.00 | 0.00 | 0.00 | 52 | 1017.7 |
| 20260501212022 | 16 | 0 | 8.0 | 9.7 | 0.00 | 0.00 | 0.00 | 52 | 1017.7 |
| 20260501211518 | 16 | 247 | 0.0 | 3.2 | 0.00 | 0.00 | 0.00 | 52 | 1017.7 |
| 20260501211113 | 16 | 292 | 0.0 | 1.6 | 0.00 | 0.00 | 0.00 | 52 | 1017.7 |
| 20260501210709 | 16 | 45 | 1.6 | 3.2 | 0.00 | 0.00 | 0.00 | 51 | 1017.7 |
| 20260501210507 | 16 | 292 | 0.0 | 0.0 | 0.00 | 0.00 | 0.00 | 51 | 1017.7 |
| 20260501210211 | 16 | 0 | 0.0 | 6.4 | 0.00 | 0.00 | 0.00 | 51 | 1017.7 |
| 20260501210009 | 16 | 0 | 6.4 | 6.4 | 0.00 | 0.00 | 0.00 | 51 | 1017.8 |
| 20260501205604 | 17 | 0 | 3.2 | 3.2 | 0.00 | 0.00 | 0.00 | 52 | 1017.9 |
| 20260501205531 | 17 | 348 | 1.6 | 4.8 | 0.00 | 0.00 | 0.00 | 50 | 1017.8 |
| 20260501205329 | 17 | 0 | 3.2 | 4.8 | 0.00 | 0.00 | 0.00 | 51 | 1017.8 |
| 20260501205206 | 17 | 0 | 3.2 | 4.8 | 0.00 | 0.00 | 0.00 | 50 | 1017.9 |
| 20260501205126 | 17 | 0 | 3.2 | 4.8 | 0.00 | 0.00 | 0.00 | 50 | 1017.9 |
| 20260501204923 | 17 | 45 | 3.2 | 4.8 | 0.00 | 0.00 | 0.00 | 50 | 1017.8 |
| 20260501204519 | 17 | 0 | 4.8 | 4.8 | 0.00 | 0.00 | 0.00 | 51 | 1017.9 |
| 20260501204317 | 17 | 270 | 3.2 | 3.2 | 0.00 | 0.00 | 0.00 | 50 | 1017.9 |
| 20260501204118 | 17 | 303 | 3.2 | 4.8 | 0.00 | 0.00 | 0.00 | 50 | 1017.9 |
| 20260501203916 | 17 | 315 | 3.2 | 4.8 | 0.00 | 0.00 | 0.00 | 50 | 1017.8 |
| 20260501203714 | 17 | 292 | 1.6 | 4.8 | 0.00 | 0.00 | 0.00 | 50 | 1017.8 |
| 20260501203514 | 17 | 315 | 1.6 | 4.8 | 0.00 | 0.00 | 0.00 | 50 | 1017.7 |
| 20260501203238 | 17 | 292 | 3.2 | 4.8 | 0.00 | 0.00 | 0.00 | 48 | 1017.5 |
| 20260501203036 | 17 | 281 | 4.8 | 4.8 | 0.00 | 0.00 | 0.00 | 48 | 1017.8 |
| 20260501202834 | 17 | 45 | 0.0 | 4.8 | 0.00 | 0.00 | 0.00 | 48 | 1017.7 |
| 20260501202631 | 17 | 315 | 3.2 | 202.8 | 0.00 | 0.00 | 0.00 | 48 | 1017.7 |
| 20260501202509 | 17 | 292 | 4.8 | 202.8 | 0.00 | 0.00 | 0.00 | 48 | 1017.6 |
| 20260501202430 | 17 | 292 | 4.8 | 202.8 | 0.00 | 0.00 | 0.00 | 48 | 1017.6 |
| 20260501202327 | 17 | 315 | 202.8 | 202.8 | 0.00 | 0.00 | 0.00 | 48 | 1017.6 |
| 20260501202244 | 17 | 281 | 1.6 | 4.8 | 0.00 | 0.00 | 0.00 | 48 | 1017.7 |
| 20260501201838 | 17 | 45 | 3.2 | 3.2 | 0.00 | 0.00 | 0.00 | 47 | 1017.7 |
| 20260501201513 | 17 | 22 | 3.2 | 201.2 | 0.00 | 0.00 | 0.00 | 47 | 1017.6 |
| 20260501201434 | 17 | 22 | 3.2 | 201.2 | 0.00 | 0.00 | 0.00 | 47 | 1017.6 |
| 20260501201332 | 17 | 45 | 201.2 | 201.2 | 0.00 | 0.00 | 0.00 | 46 | 1017.6 |
| 20260501201035 | 17 | 337 | 0.0 | 3.2 | 0.00 | 0.00 | 0.00 | 46 | 1017.6 |
| 20260501200829 | 17 | 247 | 1.6 | 1.6 | 0.00 | 0.00 | 0.00 | 46 | 1017.6 |
| 20260501200704 | 17 | 225 | 0.0 | 1.6 | 0.00 | 0.00 | 0.00 | 45 | 1017.6 |
| 20260501200627 | 17 | 225 | 0.0 | 1.6 | 0.00 | 0.00 | 0.00 | 45 | 1017.6 |
| 20260501200428 | 17 | 45 | 1.6 | 201.2 | 0.00 | 0.00 | 0.00 | 45 | 1017.7 |
| 20260501200223 | 17 | 22 | 1.6 | 201.2 | 0.00 | 0.00 | 0.00 | 44 | 1017.6 |
| 20260501200120 | 17 | 22 | 201.2 | 201.2 | 0.00 | 0.00 | 0.00 | 44 | 1017.6 |
| 20260501195944 | 17 | 22 | 1.6 | 1.6 | 0.00 | 0.00 | 0.03 | 44 | 1017.7 |
| 20260501195544 | 17 | 22 | 3.2 | 3.2 | 0.00 | 0.00 | 0.03 | 43 | 1017.6 |
| 20260501195339 | 17 | 22 | 1.6 | 1.6 | 0.00 | 0.00 | 0.03 | 43 | 1017.5 |
| 20260501195135 | 17 | 22 | 1.6 | 1.6 | 0.00 | 0.00 | 0.03 | 43 | 1017.6 |
| 20260501194528 | 18 | 45 | 3.2 | 4.8 | 0.00 | 0.00 | 0.03 | 42 | 1017.5 |
| 20260501193921 | 18 | 45 | 1.6 | 4.8 | 0.00 | 0.00 | 0.03 | 41 | 1017.6 |
| 20260501193719 | 18 | 45 | 4.8 | 4.8 | 0.00 | 0.00 | 0.03 | 41 | 1017.5 |
| 20260501193315 | 18 | 22 | 1.6 | 3.2 | 0.00 | 0.00 | 0.03 | 40 | 1017.5 |
| 20260501193112 | 18 | 22 | 3.2 | 3.2 | 0.00 | 0.00 | 0.03 | 41 | 1017.5 |
| 20260501192909 | 18 | 22 | 1.6 | 1.6 | 0.00 | 0.00 | 0.03 | 40 | 1017.6 |
| 20260501192505 | 18 | 236 | 1.6 | 1.6 | 0.00 | 0.00 | 0.03 | 40 | 1017.6 |
| 20260501191656 | 18 | 11 | 3.2 | 3.2 | 0.00 | 0.00 | 0.03 | 40 | 1017.5 |
| 20260501191454 | 18 | 0 | 1.6 | 3.2 | 0.00 | 0.00 | 0.03 | 40 | 1017.4 |
| 20260501191049 | 19 | 22 | 0.0 | 0.0 | 0.00 | 0.00 | 0.03 | 40 | 1017.5 |
| 20260501190847 | 19 | 22 | 0.0 | 0.0 | 0.00 | 0.00 | 0.03 | 40 | 1017.4 |
| 20260501190645 | 19 | 22 | 0.0 | 1.6 | 0.00 | 0.00 | 0.03 | 39 | 1017.4 |
| 20260501190443 | 19 | 33 | 1.6 | 1.6 | 0.00 | 0.00 | 0.03 | 39 | 1017.5 |
| 20260501190240 | 19 | 292 | 1.6 | 1.6 | 0.00 | 0.00 | 0.03 | 39 | 1017.5 |
| 20260501185836 | 19 | 292 | 1.6 | 1.6 | 0.00 | 0.00 | 0.03 | 39 | 1017.4 |
| 20260501185637 | 19 | 303 | 0.0 | 1.6 | 0.00 | 0.00 | 0.03 | 39 | 1017.4 |
| 20260501185510 | 20 | 315 | 1.6 | 1.6 | 0.00 | 0.00 | 0.03 | 39 | 1017.4 |
| 20260501185431 | 20 | 315 | 1.6 | 1.6 | 0.00 | 0.00 | 0.03 | 39 | 1017.4 |
| 20260501185229 | 20 | 292 | 0.0 | 1.6 | 0.00 | 0.00 | 0.03 | 39 | 1017.5 |
| 20260501185026 | 20 | 236 | 1.6 | 1.6 | 0.00 | 0.00 | 0.03 | 38 | 1017.4 |
| 20260501184824 | 20 | 247 | 0.0 | 1.6 | 0.00 | 0.00 | 0.03 | 38 | 1017.4 |
| 20260501184420 | 20 | 45 | 1.6 | 3.2 | 0.00 | 0.00 | 0.03 | 38 | 1017.4 |
| 20260501184015 | 20 | 45 | 0.0 | 3.2 | 0.00 | 0.00 | 0.03 | 38 | 1017.4 |
| 20260501183813 | 20 | 22 | 1.6 | 3.2 | 0.00 | 0.00 | 0.03 | 38 | 1017.4 |
| 20260501183413 | 20 | 247 | 1.6 | 3.2 | 0.00 | 0.00 | 0.03 | 37 | 1017.4 |
| 20260501183206 | 20 | 247 | 3.2 | 4.8 | 0.00 | 0.00 | 0.03 | 37 | 1017.3 |
| 20260501183003 | 20 | 247 | 3.2 | 4.8 | 0.00 | 0.00 | 0.03 | 37 | 1017.3 |
| 20260501182357 | 20 | 247 | 1.6 | 3.2 | 0.00 | 0.00 | 0.03 | 35 | 1017.3 |
| 20260501182155 | 21 | 247 | 0.0 | 4.8 | 0.00 | 0.00 | 0.03 | 34 | 1017.3 |
| 20260501181548 | 21 | 315 | 4.8 | 4.8 | 0.00 | 0.00 | 0.03 | 34 | 1017.3 |
| 20260501181143 | 21 | 315 | 1.6 | 3.2 | 0.00 | 0.00 | 0.03 | 35 | 1017.2 |
| 20260501180941 | 21 | 315 | 0.0 | 6.4 | 0.00 | 0.00 | 0.03 | 34 | 1017.3 |
| 20260501180537 | 21 | 315 | 6.4 | 6.4 | 0.00 | 0.00 | 0.03 | 33 | 1017.3 |
| 20260501180132 | 21 | 315 | 6.4 | 9.7 | 0.00 | 0.00 | 0.03 | 34 | 1017.3 |
| 20260501175929 | 21 | 315 | 4.8 | 9.7 | 0.00 | 0.00 | 0.03 | 34 | 1017.3 |
| 20260501175727 | 21 | 315 | 4.8 | 11.3 | 0.00 | 0.00 | 0.03 | 34 | 1017.4 |
| 20260501175526 | 21 | 315 | 6.4 | 11.3 | 0.00 | 0.00 | 0.03 | 33 | 1017.3 |
| 20260501175323 | 21 | 337 | 4.8 | 9.7 | 0.00 | 0.00 | 0.03 | 33 | 1017.2 |
| 20260501175121 | 21 | 292 | 8.0 | 14.5 | 0.00 | 0.00 | 0.03 | 33 | 1017.2 |
| 20260501174918 | 22 | 292 | 6.4 | 14.5 | 0.00 | 0.00 | 0.03 | 32 | 1017.3 |
| 20260501174716 | 22 | 303 | 8.0 | 9.7 | 0.00 | 0.00 | 0.03 | 32 | 1017.2 |
| 20260501174518 | 22 | 292 | 9.7 | 14.5 | 0.00 | 0.00 | 0.03 | 33 | 1017.3 |
| 20260501174111 | 22 | 303 | 14.5 | 14.5 | 0.00 | 0.00 | 0.03 | 32 | 1017.3 |
| 20260501173907 | 22 | 270 | 8.0 | 14.5 | 0.00 | 0.00 | 0.03 | 32 | 1017.3 |
| 20260501173705 | 22 | 315 | 6.4 | 14.5 | 0.00 | 0.00 | 0.03 | 32 | 1017.3 |
| 20260501173503 | 22 | 0 | 11.3 | 14.5 | 0.00 | 0.00 | 0.03 | 32 | 1017.3 |
| 20260501173302 | 22 | 315 | 11.3 | 14.5 | 0.00 | 0.00 | 0.03 | 32 | 1017.3 |
| 20260501172654 | 22 | 270 | 11.3 | 17.7 | 0.00 | 0.00 | 0.03 | 32 | 1017.4 |
| 20260501172250 | 22 | 315 | 17.7 | 17.7 | 0.00 | 0.00 | 0.03 | 32 | 1017.4 |
| 20260501172047 | 22 | 315 | 12.9 | 14.5 | 0.00 | 0.00 | 0.03 | 33 | 1017.3 |
| 20260501171440 | 22 | 315 | 11.3 | 16.1 | 0.00 | 0.00 | 0.03 | 33 | 1017.3 |
| 20260501171035 | 22 | 315 | 14.5 | 16.1 | 0.00 | 0.00 | 0.03 | 34 | 1017.4 |
| 20260501170631 | 22 | 292 | 4.8 | 12.9 | 0.00 | 0.00 | 0.03 | 35 | 1017.4 |
| 20260501170429 | 22 | 315 | 6.4 | 12.9 | 0.00 | 0.00 | 0.03 | 35 | 1017.5 |
| 20260501170226 | 22 | 315 | 9.7 | 12.9 | 0.00 | 0.00 | 0.03 | 35 | 1017.3 |
| 20260501165822 | 22 | 315 | 9.7 | 11.3 | 0.00 | 0.00 | 0.03 | 36 | 1017.5 |
| 20260501165619 | 22 | 315 | 9.7 | 11.3 | 0.00 | 0.00 | 0.03 | 36 | 1017.5 |
| 20260501165417 | 21 | 315 | 9.7 | 11.3 | 0.00 | 0.00 | 0.03 | 37 | 1017.5 |
| 20260501165215 | 21 | 315 | 6.4 | 14.5 | 0.00 | 0.00 | 0.03 | 37 | 1017.6 |
| 20260501165013 | 21 | 315 | 6.4 | 14.5 | 0.00 | 0.00 | 0.03 | 38 | 1017.5 |
| 20260501164204 | 21 | 337 | 3.2 | 9.7 | 0.00 | 0.00 | 0.00 | 39 | 1017.5 |
| 20260501164001 | 21 | 157 | 6.4 | 9.7 | 0.00 | 0.00 | 0.00 | 39 | 1017.7 |
| 20260501162545 | 20 | 0 | 8.0 | 12.9 | 0.00 | 0.00 | 0.00 | 39 | 1017.5 |
| 20260501162343 | 20 | 337 | 6.4 | 12.9 | 0.00 | 0.00 | 0.00 | 40 | 1017.6 |
| 20260501162141 | 20 | 337 | 8.0 | 8.0 | 0.00 | 0.00 | 0.00 | 40 | 1017.6 |
| 20260501161736 | 20 | 337 | 8.0 | 12.9 | 0.00 | 0.00 | 0.00 | 40 | 1017.6 |
| 20260501161534 | 20 | 337 | 4.8 | 11.3 | 0.00 | 0.00 | 0.00 | 41 | 1017.5 |
| 20260501161332 | 20 | 0 | 8.0 | 206.0 | 0.00 | 0.00 | 0.00 | 41 | 1017.5 |
| 20260501161130 | 20 | 0 | 9.7 | 206.0 | 0.00 | 0.00 | 0.00 | 41 | 1017.5 |
| 20260501161028 | 20 | 0 | 206.0 | 206.0 | 0.00 | 0.00 | 0.00 | 41 | 1017.7 |
| 20260501160856 | 20 | 0 | 11.3 | 11.3 | 0.00 | 0.00 | 0.00 | 40 | 1017.6 |